Weather History for Weslaco, TX

Change the Weather History Date:

Sunday, August 11, 2013

  Actual Average (KMFE) Record (KMFE)
Temperature  
Mean Temperature 83 °F 88 °F  
Max Temperature 91 °F 99 °F 105 °F (2009)
Min Temperature 75 °F 77 °F 68 °F (2001)
Degree Days  
Heating Degree Days 0 0  
Month to date heating degree days 0  
Since 1 June heating degree days 0  
Since 1 July heating degree days 0  
Cooling Degree Days 18 23  
Month to date cooling degree days 252  
Year to date cooling degree days 2809  
Since 1 June cooling degree days 1554  
Growing Degree Days 33 (Base 50)    
Moisture  
Dew Point 73 °F    
Average Humidity 76    
Maximum Humidity 91    
Minimum Humidity 51    
Precipitation  
Precipitation 0.12 in 0.04 in 1.08 in (1975)
Month to date precipitation 0.52  
Year to date precipitation 11.88  
Sea Level Pressure  
Sea Level Pressure 29.99 in    
Wind  
Wind Speed 3 mph (ENE)    
Max Wind Speed 16 mph    
Max Gust Speed 28 mph    
Visibility 9 miles    
Events Rain , Thunderstorm    
T = Trace of Precipitation, MM = Missing Value Source: NWS Daily Summary

Daily Weather History Graph

Daily Weather History Graph

Search for Another Location

Airport:

Trip Planner

Search our weather history database for the weather conditions in past years. The results will help you decide how hot, cold, wet, or windy it might be!

Date:

Astronomy

Aug. 11, 2013 Rise Set
Actual Time 7:02 AM CDT 8:11 PM CDT
Civil Twilight 6:38 AM CDT 8:35 PM CDT
Nautical Twilight 6:09 AM CDT 9:04 PM CDT
Astronomical Twilight 5:39 AM CDT 9:33 PM CDT
Moon 11:17 AM CDT (8/11) 11:04 PM CDT (8/11)
Length of Visible Light 13h 57m
Length of Day
13h 08m
Waxing Crescent, 22% of the Moon is Illuminated
Aug 11
Waxing Crescent
Aug 14
First Quarter
Aug 20
Full
Aug 28
Last Quarter
Sep 5
New

Hourly Weather History & Observations

Time (CDT) Temp. Heat Index Dew Point Humidity Pressure Visibility Wind Dir Wind Speed Gust Speed Precip Events Conditions
12:15 AM 79.0 °F - 72.9 °F 81% 29.98 in 10.0 mi Calm Calm - N/A   Clear
12:35 AM 78.8 °F - 73.0 °F 82% 29.98 in 10.0 mi Calm Calm - N/A   Clear
12:55 AM 78.4 °F - 73.4 °F 84% 29.98 in 10.0 mi Calm Calm - N/A   Clear
1:15 AM 77.0 °F - 73.4 °F 89% 29.98 in 10.0 mi Calm Calm - N/A   Clear
1:35 AM 77.2 °F - 73.6 °F 89% 29.97 in 10.0 mi Calm Calm - N/A   Clear
1:55 AM 77.2 °F - 73.6 °F 89% 29.98 in 10.0 mi Calm Calm - N/A   Clear
2:15 AM 77.0 °F - 73.4 °F 89% 29.98 in 10.0 mi NW 3.5 mph - N/A   Clear
2:35 AM 76.5 °F - 73.4 °F 90% 29.98 in 10.0 mi WNW 3.5 mph - N/A   Clear
2:55 AM 77.0 °F - 73.6 °F 89% 29.98 in 10.0 mi NNW 3.5 mph - N/A   Clear
3:15 AM 76.6 °F - 73.4 °F 90% 29.97 in 10.0 mi NNW 3.5 mph - N/A   Clear
3:35 AM 76.6 °F - 73.6 °F 90% 29.98 in 10.0 mi Calm Calm - N/A   Scattered Clouds
3:55 AM 77.0 °F - 73.6 °F 89% 29.98 in 10.0 mi North 3.5 mph - N/A   Mostly Cloudy
4:15 AM 76.8 °F - 73.6 °F 90% 29.97 in 10.0 mi Calm Calm - N/A   Scattered Clouds
4:35 AM 76.5 °F - 73.6 °F 91% 29.97 in 7.0 mi NNW 3.5 mph - N/A   Scattered Clouds
4:55 AM 77.0 °F - 73.8 °F 90% 29.97 in 7.0 mi Calm Calm - N/A Rain Light Rain
5:15 AM 77.0 °F - 73.8 °F 90% 29.97 in 10.0 mi Calm Calm - N/A   Mostly Cloudy
5:35 AM 76.5 °F - 73.4 °F 90% 29.97 in 7.0 mi NNW 3.5 mph - N/A   Scattered Clouds
5:55 AM 77.0 °F - 73.9 °F 90% 29.97 in 7.0 mi North 3.5 mph - N/A   Scattered Clouds
6:15 AM 77.0 °F - 73.8 °F 90% 29.98 in 7.0 mi North 3.5 mph - N/A   Clear
6:35 AM 77.0 °F - 73.8 °F 90% 29.98 in 7.0 mi Calm Calm - N/A   Clear
6:55 AM 76.6 °F - 73.6 °F 90% 29.99 in 7.0 mi Calm Calm - N/A   Scattered Clouds
7:15 AM 76.6 °F - 73.8 °F 91% 29.99 in 7.0 mi Calm Calm - N/A   Scattered Clouds
7:35 AM 77.0 °F - 73.9 °F 90% 29.99 in 7.0 mi North 3.5 mph - N/A   Clear
7:55 AM 77.9 °F - 74.5 °F 89% 29.99 in 7.0 mi North 3.5 mph - N/A   Clear
8:15 AM 79.0 °F - 75.0 °F 88% 30.00 in 7.0 mi North 4.6 mph - N/A   Clear
8:35 AM 80.4 °F 86.0 °F 75.4 °F 85% 30.00 in 10.0 mi North 4.6 mph - N/A   Clear
8:55 AM 81.7 °F 88.5 °F 75.6 °F 82% 30.00 in 10.0 mi North 4.6 mph - N/A   Clear
9:15 AM 83.7 °F 92.0 °F 75.9 °F 77% 30.01 in 10.0 mi NNE 6.9 mph - N/A   Clear
9:35 AM 85.1 °F 94.1 °F 75.7 °F 73% 30.01 in 10.0 mi NE 5.8 mph - N/A   Scattered Clouds
9:55 AM 86.2 °F 95.5 °F 75.2 °F 70% 30.01 in 10.0 mi NE 3.5 mph - N/A   Scattered Clouds
10:15 AM 87.4 °F 96.2 °F 74.5 °F 65% 30.01 in 7.0 mi NNW 4.6 mph - N/A   Scattered Clouds
10:35 AM 88.3 °F 97.4 °F 74.3 °F 63% 30.01 in 7.0 mi North 3.5 mph - N/A   Mostly Cloudy
10:55 AM 88.9 °F 96.6 °F 73.0 °F 59% 30.00 in 10.0 mi NE 5.8 mph - N/A   Scattered Clouds
11:15 AM 90.1 °F 98.9 °F 73.4 °F 58% 30.00 in 10.0 mi North 6.9 mph - N/A   Mostly Cloudy
11:35 AM 91.0 °F 97.1 °F 70.9 °F 51% 30.00 in 10.0 mi NE 5.8 mph - N/A   Scattered Clouds
11:55 AM 90.1 °F 96.8 °F 71.6 °F 54% 30.00 in 7.0 mi North 5.8 mph - N/A   Scattered Clouds
12:15 PM 89.6 °F 95.7 °F 70.9 °F 54% 30.00 in 10.0 mi ENE 5.8 mph - N/A   Scattered Clouds
12:35 PM 81.1 °F 85.6 °F 72.0 °F 74% 30.02 in 7.0 mi ENE 16.1 mph 27.6 mph 0.01 in Rain , Thunderstorm Heavy Thunderstorms and Rain
12:55 PM 75.4 °F - 71.6 °F 88% 30.02 in 3.0 mi NE 9.2 mph - 0.11 in Rain Rain
1:15 PM 75.9 °F - 71.1 °F 85% 30.01 in 10.0 mi ENE 6.9 mph - N/A Rain Light Rain
1:35 PM 77.0 °F - 70.7 °F 81% 30.01 in 10.0 mi East 3.5 mph - 0.01 in Rain Light Rain
1:55 PM 80.6 °F 84.7 °F 72.1 °F 75% 30.01 in 10.0 mi Calm Calm - 0.01 in   Light Drizzle
2:15 PM 84.0 °F 92.2 °F 75.2 °F 75% 30.01 in 10.0 mi East 6.9 mph - N/A   Scattered Clouds
2:35 PM 85.5 °F 93.8 °F 74.7 °F 70% 30.00 in 10.0 mi East 13.8 mph - N/A   Scattered Clouds
2:55 PM 85.8 °F 93.8 °F 74.3 °F 68% 29.99 in 10.0 mi ESE 10.4 mph 16.1 mph N/A   Scattered Clouds
3:15 PM 87.8 °F 95.6 °F 73.4 °F 62% 29.98 in 7.0 mi East 6.9 mph - N/A   Scattered Clouds
3:35 PM 87.6 °F 95.7 °F 73.6 °F 63% 29.98 in 10.0 mi ENE 8.1 mph - N/A   Scattered Clouds
3:55 PM 88.0 °F 96.0 °F 73.4 °F 62% 29.97 in 7.0 mi ENE 6.9 mph - N/A   Mostly Cloudy
4:15 PM 86.2 °F 90.7 °F 70.0 °F 58% 29.96 in 10.0 mi ESE 11.5 mph - N/A   Mostly Cloudy
4:35 PM 85.8 °F 89.7 °F 69.1 °F 57% 29.97 in 10.0 mi SE 10.4 mph 17.3 mph N/A   Scattered Clouds
4:55 PM 87.8 °F 91.4 °F 68.4 °F 52% 29.97 in 10.0 mi SE 6.9 mph - N/A   Scattered Clouds
5:15 PM 87.1 °F 91.6 °F 69.8 °F 56% 29.97 in 10.0 mi East 8.1 mph - N/A   Scattered Clouds
5:35 PM 88.2 °F 93.7 °F 70.9 °F 56% 29.96 in 10.0 mi SE 8.1 mph - N/A   Scattered Clouds
5:55 PM 86.0 °F 91.8 °F 71.8 °F 62% 29.97 in 10.0 mi ESE 10.4 mph - N/A   Scattered Clouds
6:15 PM 86.2 °F 91.4 °F 71.1 °F 60% 29.97 in 10.0 mi East 9.2 mph - N/A   Scattered Clouds
6:35 PM 83.5 °F 88.0 °F 70.7 °F 65% 29.98 in 10.0 mi ESE 6.9 mph - N/A   Scattered Clouds
6:55 PM 84.4 °F 88.7 °F 70.2 °F 62% 29.97 in 10.0 mi ESE 6.9 mph - N/A   Clear
7:15 PM 85.3 °F 90.4 °F 71.1 °F 62% 29.97 in 10.0 mi SE 9.2 mph - N/A   Clear
7:35 PM 84.0 °F 89.3 °F 71.6 °F 66% 29.98 in 10.0 mi SE 6.9 mph - N/A   Clear
7:55 PM 83.1 °F 88.4 °F 72.0 °F 69% 29.98 in 10.0 mi SE 8.1 mph - N/A   Clear
8:15 PM 82.2 °F 86.9 °F 71.6 °F 70% 29.98 in 10.0 mi SE 6.9 mph - N/A   Clear
8:35 PM 81.9 °F 86.2 °F 71.2 °F 70% 29.98 in 10.0 mi SE 5.8 mph - N/A   Clear
8:55 PM 81.5 °F 85.9 °F 71.6 °F 72% 29.98 in 10.0 mi SE 3.5 mph - N/A   Clear
9:15 PM 80.8 °F 84.9 °F 72.0 °F 74% 29.99 in 10.0 mi ESE 5.8 mph - N/A   Clear
9:35 PM 80.6 °F 84.7 °F 72.1 °F 75% 30.00 in 10.0 mi East 3.5 mph - N/A   Clear
9:55 PM 79.9 °F - 72.1 °F 77% 30.00 in 10.0 mi East 3.5 mph - N/A   Clear
10:15 PM 79.7 °F - 72.5 °F 79% 30.01 in 10.0 mi East 3.5 mph - N/A   Clear
10:35 PM 79.0 °F - 72.5 °F 80% 30.02 in 10.0 mi SE 4.6 mph - N/A   Clear
10:55 PM 79.2 °F - 72.3 °F 79% 30.03 in 10.0 mi ESE 4.6 mph - N/A   Clear